Flag for U.S.A. Weather past 2 weeks in Fayetteville, North Carolina, U.S.A.

Now
72 °F

Overcast.


Feels Like: 70 °F
Forecast: 68 / 86 °F
Wind: 8 mph from Southeast

Location: Fayetteville Regional Airport

Current Time: May 28, 2015 at 9:25:31 AM

Latest Report: May 28, 2015 at 8:53 AM


Visibility: 10 mi

Pressure: 30.22 "Hg

Humidity: 87%

Dew point: 68 °F

Location of FayettevilleLocation

Historic Weather in Fayetteville — Graph

°F

Fayetteville temperature yesterday

Maximum temperature yesterday: 87 °F (at 2:53 PM)
Minimum temperature yesterday: 70 °F (at 5:53 AM)
Average temperature yesterday: 77 °F

Past Weeks' High & Low Weather Summary

 TemperatureHumidityPressure
High90 °F (May 18, 3:53 PM)97% (May 15, 5:53 AM)30.40 "Hg (May 15, 5:53 AM)
Low51 °F (May 23, 4:53 AM)27% (May 13, 3:53 PM)29.74 "Hg (May 21, 1:53 PM)
Average73 °F67%30.17 "Hg
* Reported May 13 7:53 AM — May 28 7:53 AM, Fayetteville, Weather by CustomWeather, © 2015

Note: Actual official high and low records may vary slightly from our data, if they occured in-between our weather recording intervals... More about our weather records

Advertising

Fayetteville weather history for previous 24 hours

 ConditionsComfort  
Time TempWeatherWind HumidityBarometerVisibility
7:53 AM
Thu, May 28
70 °FMostly cloudy.3 mph93%30.22 "Hg9 mi
6:53 AM69 °FOvercast.No wind96%30.20 "Hg8 mi
5:53 AM69 °FPassing clouds.3 mph93%30.18 "Hg9 mi
4:53 AM69 °FPassing clouds.3 mph93%30.17 "Hg10 mi
3:53 AM69 °FOvercast.No wind93%30.17 "Hg10 mi
2:53 AM70 °FOvercast.6 mph90%30.17 "Hg10 mi
1:53 AM70 °FPassing clouds.5 mph90%30.19 "Hg10 mi
12:53 AM71 °FClear.5 mph87%30.21 "Hg10 mi
11:53 PM
Wed, May 27
72 °FClear.6 mph87%30.21 "Hg10 mi
10:53 PM72 °FClear.3 mph91%30.20 "Hg10 mi
9:53 PM73 °FClear.5 mph90%30.19 "Hg10 mi
8:53 PM74 °FSunny.6 mph91%30.18 "Hg10 mi
7:53 PM74 °FSunny.6 mph91%30.18 "Hg10 mi
6:53 PM78 °FPassing clouds.12 mph76%30.17 "Hg10 mi
5:53 PM83 °FSunny.13 mph59%30.16 "Hg10 mi
4:53 PM81 °FPassing clouds.10 mph56%30.16 "Hg10 mi
3:53 PM85 °FSunny.16 mph57%30.17 "Hg10 mi
2:53 PM87 °FPassing clouds.7 mph50%30.17 "Hg10 mi
1:53 PM86 °FPassing clouds.N/A51%30.19 "Hg10 mi
12:53 PM83 °FPassing clouds.5 mph57%30.21 "Hg10 mi
11:53 AM83 °FScattered clouds.14 mph59%30.23 "Hg10 mi
10:53 AM83 °FBroken clouds.10 mph61%30.23 "Hg10 mi
9:53 AM79 °FPartly sunny.10 mph72%30.24 "Hg10 mi
Weather by CustomWeather, © 2015

See weather overviewHow to use our weather pages